Weather History for Clinton, OK

Change the Weather History Date:

Tuesday, July 16, 2013

  Actual Average (KCSM) Record (KCSM)
Temperature  
Mean Temperature 72 °F -  
Max Temperature 78 °F 95 °F 106 °F (2000)
Min Temperature 66 °F 70 °F 62 °F (2014)
Cooling Degree Days 7    
Growing Degree Days 22 (Base 50)    
Moisture  
Dew Point 64 °F    
Average Humidity 79    
Maximum Humidity 94    
Minimum Humidity 61    
Precipitation  
Precipitation 0.03 in - - ()
Sea Level Pressure  
Sea Level Pressure 30.21 in    
Wind  
Wind Speed 9 mph (ESE)    
Max Wind Speed 17 mph    
Max Gust Speed 25 mph    
Visibility 9 miles    
Events Rain    
Averages and records for this station are not official NWS values.
T = Trace of Precipitation, MM = Missing Value Source: NWS Daily Summary

Daily Weather History Graph

Daily Weather History Graph

Search for Another Location

Airport:

Trip Planner

Search our weather history database for the weather conditions in past years. The results will help you decide how hot, cold, wet, or windy it might be!

Date:

Astronomy

Jul. 16, 2013 Rise Set
Actual Time 6:32 AM CDT 8:50 PM CDT
Civil Twilight 6:03 AM CDT 9:19 PM CDT
Nautical Twilight 5:27 AM CDT 9:55 PM CDT
Astronomical Twilight 4:48 AM CDT 10:34 PM CDT
Moon 2:38 PM CDT (7/16) 12:57 AM CDT (7/16)
Length of Visible Light 15h 16m
Length of Day
14h 18m
First Quarter, 56% of the Moon is Illuminated
Jul 16
First Quarter
Jul 22
Full
Jul 29
Last Quarter
Aug 6
New
Aug 14
First Quarter

Hourly Weather History & Observations

Time (CDT) Temp. Dew Point Humidity Pressure Visibility Wind Dir Wind Speed Gust Speed Precip Events Conditions
12:15 AM 66.2 °F 62.6 °F 88% 30.17 in 7.0 mi ESE 6.9 mph - N/A   Unknown
12:35 AM 66.2 °F 62.6 °F 88% 30.18 in 3.0 mi SE 8.1 mph - N/A Rain Rain
12:55 AM 66.2 °F 64.4 °F 94% 30.17 in 10.0 mi SE 9.2 mph - N/A   Unknown
1:15 AM 68.0 °F 62.6 °F 83% 30.18 in 10.0 mi ESE 9.2 mph - N/A   Unknown
1:35 AM 68.0 °F 62.6 °F 83% 30.17 in 10.0 mi SE 10.4 mph - N/A   Unknown
1:55 AM 68.0 °F 62.6 °F 83% 30.17 in 10.0 mi ESE 9.2 mph - N/A   Unknown
2:15 AM 68.0 °F 64.4 °F 88% 30.16 in 7.0 mi ESE 8.1 mph - N/A   Unknown
2:35 AM 68.0 °F 64.4 °F 88% 30.16 in 7.0 mi ESE 9.2 mph - N/A   Unknown
2:55 AM 68.0 °F 64.4 °F 88% 30.17 in 7.0 mi ESE 10.4 mph - N/A   Unknown
3:15 AM 68.0 °F 64.4 °F 88% 30.16 in 7.0 mi ESE 8.1 mph - N/A   Unknown
3:35 AM 68.0 °F 64.4 °F 88% 30.16 in 4.0 mi ESE 9.2 mph - N/A   Mist
3:55 AM 68.0 °F 64.4 °F 88% 30.16 in 4.0 mi East 9.2 mph - 0.01 in Rain Light Rain
4:15 AM 68.0 °F 64.4 °F 88% 30.16 in 5.0 mi East 6.9 mph - N/A   Mist
4:35 AM 68.0 °F 64.4 °F 88% 30.15 in 5.0 mi East 6.9 mph - 0.01 in Rain Light Rain
4:55 AM 68.0 °F 64.4 °F 88% 30.15 in 7.0 mi East 5.8 mph - 0.02 in   Unknown
5:15 AM 68.0 °F 64.4 °F 88% 30.15 in 10.0 mi ENE 5.8 mph - N/A   Unknown
5:35 AM 68.0 °F 64.4 °F 88% 30.16 in 7.0 mi East 8.1 mph - N/A   Unknown
5:55 AM 68.0 °F 64.4 °F 88% 30.16 in 7.0 mi East 9.2 mph - N/A   Unknown
6:15 AM 68.0 °F 64.4 °F 88% 30.17 in 10.0 mi ESE 9.2 mph - N/A   Unknown
6:35 AM 68.0 °F 64.4 °F 88% 30.18 in 10.0 mi ESE 11.5 mph - N/A Rain Light Rain
6:55 AM 68.0 °F 64.4 °F 88% 30.18 in 10.0 mi ESE 11.5 mph - N/A   Unknown
7:15 AM 68.0 °F 64.4 °F 88% 30.19 in 7.0 mi ESE 11.5 mph - N/A   Unknown
7:35 AM 68.0 °F 64.4 °F 88% 30.19 in 7.0 mi East 10.4 mph 17.3 mph N/A   Light Drizzle
7:55 AM 68.0 °F 64.4 °F 88% 30.20 in 5.0 mi ESE 10.4 mph - N/A   Light Drizzle
8:15 AM 68.0 °F 64.4 °F 88% 30.21 in 7.0 mi ESE 12.7 mph - N/A   Unknown
8:35 AM 68.0 °F 64.4 °F 88% 30.22 in 7.0 mi ESE 12.7 mph - N/A   Unknown
8:55 AM 69.8 °F 64.4 °F 83% 30.22 in 7.0 mi ESE 11.5 mph - N/A   Unknown
9:15 AM 69.8 °F 64.4 °F 83% 30.22 in 10.0 mi ESE 10.4 mph 16.1 mph N/A   Unknown
9:35 AM 69.8 °F 64.4 °F 83% 30.22 in 7.0 mi ESE 11.5 mph 17.3 mph N/A   Unknown
9:55 AM 69.8 °F 66.2 °F 88% 30.22 in 7.0 mi ESE 13.8 mph 18.4 mph N/A   Unknown
10:15 AM 69.8 °F 66.2 °F 88% 30.22 in 7.0 mi ESE 11.5 mph 16.1 mph N/A   Unknown
10:35 AM 69.8 °F 66.2 °F 88% 30.22 in 7.0 mi ESE 10.4 mph 16.1 mph N/A   Unknown
10:55 AM 69.8 °F 64.4 °F 83% 30.23 in 7.0 mi ESE 11.5 mph - N/A   Unknown
11:15 AM 71.6 °F 66.2 °F 83% 30.23 in 7.0 mi ESE 10.4 mph - N/A   Unknown
11:35 AM 71.6 °F 64.4 °F 78% 30.23 in 10.0 mi SE 12.7 mph 18.4 mph N/A   Unknown
11:55 AM 71.6 °F 64.4 °F 78% 30.24 in 10.0 mi SE 13.8 mph - N/A   Unknown
12:15 PM 71.6 °F 64.4 °F 78% 30.23 in 10.0 mi ESE 15.0 mph - N/A   Light Drizzle
12:35 PM 73.4 °F 64.4 °F 73% 30.23 in 10.0 mi ESE 13.8 mph - N/A   Unknown
12:55 PM 77.0 °F 64.4 °F 65% 30.23 in 10.0 mi SE 15.0 mph 25.3 mph N/A   Unknown
1:15 PM 77.0 °F 64.4 °F 65% 30.23 in 10.0 mi SE 15.0 mph 19.6 mph N/A   Unknown
1:35 PM 77.0 °F 66.2 °F 69% 30.22 in 10.0 mi SE 15.0 mph - N/A   Unknown
1:55 PM 77.0 °F 64.4 °F 65% 30.22 in 10.0 mi SE 17.3 mph 21.9 mph N/A Rain Light Rain
2:15 PM 77.0 °F 64.4 °F 65% 30.22 in 10.0 mi SE 17.3 mph 23.0 mph N/A   Unknown
2:35 PM 78.8 °F 64.4 °F 61% 30.21 in 10.0 mi SE 16.1 mph 19.6 mph N/A   Unknown
2:55 PM 78.8 °F 64.4 °F 61% 30.21 in 10.0 mi SE 16.1 mph 19.6 mph N/A   Unknown
3:55 PM 78.8 °F 64.4 °F 61% 30.23 in 10.0 mi SSE 13.8 mph 20.7 mph N/A   Unknown
4:15 PM 78.8 °F 64.4 °F 61% 30.23 in 10.0 mi South 10.4 mph - N/A   Unknown
4:35 PM 73.4 °F 62.6 °F 69% 30.23 in 10.0 mi SW 11.5 mph 16.1 mph N/A   Unknown
4:55 PM 73.4 °F 62.6 °F 69% 30.23 in 10.0 mi SW 9.2 mph - N/A   Unknown
5:15 PM 73.4 °F 62.6 °F 69% 30.22 in 10.0 mi WSW 8.1 mph - N/A   Unknown
5:35 PM 73.4 °F 62.6 °F 69% 30.22 in 10.0 mi WSW 4.6 mph - N/A   Unknown
5:55 PM 73.4 °F 62.6 °F 69% 30.22 in 10.0 mi West 3.5 mph - N/A   Unknown
6:15 PM 73.4 °F 62.6 °F 69% 30.22 in 10.0 mi West 5.8 mph - N/A   Unknown
6:35 PM 73.4 °F 62.6 °F 69% 30.22 in 10.0 mi West 3.5 mph - N/A   Unknown
6:55 PM 73.4 °F 62.6 °F 69% 30.22 in 10.0 mi WNW 4.6 mph - N/A   Unknown
7:15 PM 73.4 °F 62.6 °F 69% 30.22 in 10.0 mi West 5.8 mph - N/A   Unknown
7:35 PM 73.4 °F 62.6 °F 69% 30.23 in 10.0 mi NNW 3.5 mph - N/A   Unknown
7:55 PM 73.4 °F 62.6 °F 69% 30.24 in 10.0 mi WNW 3.5 mph - N/A   Unknown
8:15 PM 73.4 °F 62.6 °F 69% 30.24 in 10.0 mi NW 4.6 mph - N/A   Unknown
8:35 PM 71.6 °F 62.6 °F 73% 30.24 in 10.0 mi NNW 3.5 mph - N/A   Unknown
8:55 PM 71.6 °F 62.6 °F 73% 30.24 in 10.0 mi North 3.5 mph - N/A   Unknown
9:15 PM 71.6 °F 64.4 °F 78% 30.24 in 10.0 mi NNE 4.6 mph - N/A   Unknown
9:35 PM 71.6 °F 62.6 °F 73% 30.25 in 10.0 mi East 9.2 mph - N/A   Unknown
9:55 PM 71.6 °F 62.6 °F 73% 30.26 in 10.0 mi East 9.2 mph - N/A   Unknown
10:15 PM 69.8 °F 62.6 °F 78% 30.27 in 10.0 mi ESE 8.1 mph - N/A   Unknown
10:35 PM 69.8 °F 62.6 °F 78% 30.27 in 10.0 mi East 8.1 mph - N/A   Unknown
10:55 PM 69.8 °F 62.6 °F 78% 30.28 in 10.0 mi East 6.9 mph - N/A   Unknown
11:15 PM 69.8 °F 62.6 °F 78% 30.28 in 10.0 mi East 5.8 mph - N/A   Unknown
11:35 PM 69.8 °F 62.6 °F 78% 30.28 in 10.0 mi Calm Calm - N/A   Unknown
11:55 PM 69.8 °F 62.6 °F 78% 30.28 in 10.0 mi Calm Calm - N/A   Unknown